星链-6037 (STARLINK-6037 )

导读 | 星芒AI

STARLINK-6037 是 SpaceX Starlink 卫星互联网项目中的一颗低轨卫星,属于第60组发射任务中部署的星群之一。该卫星旨在为全球用户提供高速、低延迟的宽带互联网服务,尤其关注网络覆盖不足的地区。它运行在约550公里高度的近地轨道,采用先进通信技术,支持Ka和Ku波段传输。Starlink 项目由数千颗卫星组成,致力于构建全球性卫星互联网网络。STARLINK-6037 的成功部署有助于提升 Starlink 网络的稳定性和覆盖范围。

基本信息
目录编号:
56461
目录名称:
STARLINK-6037
国际标识:
2023-064P
轨道中心:
EARTH
卫星名称:
星链-6037
卫星全名:
星链-6037 (STARLINK-6037 )
卫星状态:
在轨 (已飞行956 天)
发射日期:
2023-05-10 UTC
国别 :
美国 (US)
星等 :
--
轨道信息
数据来源 国际轨道数据
星历时间: 2025-12-21T16:06:51+0800
9小时前
查看轨道信息
半长轴: 6950.204km
偏心率: 0.0002451
轨道倾角: 70.002°
近地点辐角 260.489°
升交点赤经 341.855°
平近点角 99.599°
近地点: 570.363km
远地点: 573.771km
周期: 96.107分钟
每日圈数: 14.983266
详细信息
固有亮度:
5
最大亮度:
2.5
卫星平台:
Starlink v1.5
覆盖范围:
全球
运营商:
太空探索技术公司
运营商所在国:
美国
制造商(研发单位):
太空探索技术公司
制造商所在国:
美国
使用方式:
暂无
卫星简介
星链(Starlink)计划是由太空探索技术公司(SpaceX)提出的一个巨型低轨卫星互联网星座项目,计划在2019年至2024年间在太空搭建由约1.2万颗卫星组成的“星链”网络,其中1584颗将部署在地球上空550千米处的近地轨道,并从2020年开始工作。该卫星仍在工作。
2D轨道图
3D轨道图
轨道高度分析图
轨道倾角分析图
轨道综合分析图
查看轨道综合分析图